IGO1845 EGKK-EGKK

Flight info

Callsign IGO1845
Flight time 1h 10m
Altitude 4000
Route IFR CIRCUITS
Aircraft A320/M-V/N

Departure

Time 2026-05-04 17:49
Airport London Gatwick Airport (EGKK)

Arrival

Time 2026-05-04 19:00
Airport London Gatwick Airport (EGKK)
Time Latitude Longitude Altitude Speed Heading
2026-05-04 17:15 51.15133 -0.19429 205 ft 0 kts 77°
2026-05-04 17:31 51.15123 -0.19532 205 ft 4 kts 90°
2026-05-04 17:32 51.15138 -0.19597 209 ft 1 kts 167°
2026-05-04 17:33 51.15143 -0.19599 205 ft 0 kts 167°
2026-05-04 17:36 51.15140 -0.19598 205 ft 2 kts 167°
2026-05-04 17:36 51.15113 -0.19589 214 ft 6 kts 168°
2026-05-04 17:36 51.15059 -0.19571 205 ft 10 kts 168°
2026-05-04 17:37 51.15009 -0.19629 210 ft 12 kts 256°
2026-05-04 17:37 51.14988 -0.19780 206 ft 16 kts 258°
2026-05-04 17:37 51.14970 -0.19910 205 ft 19 kts 257°
2026-05-04 17:37 51.14938 -0.20141 211 ft 24 kts 257°
2026-05-04 17:38 51.14897 -0.20435 215 ft 15 kts 257°
2026-05-04 17:38 51.14885 -0.20522 216 ft 12 kts 257°
2026-05-04 17:38 51.14864 -0.20676 205 ft 16 kts 257°
2026-05-04 17:38 51.14839 -0.20856 210 ft 17 kts 257°
2026-05-04 17:39 51.14802 -0.21118 213 ft 7 kts 257°
2026-05-04 17:39 51.14782 -0.21205 205 ft 10 kts 255°
2026-05-04 17:39 51.14768 -0.21302 205 ft 7 kts 257°
2026-05-04 17:40 51.14762 -0.21342 205 ft 2 kts 257°
2026-05-04 17:40 51.14754 -0.21385 205 ft 6 kts 243°
2026-05-04 17:40 51.14726 -0.21407 214 ft 1 kts 181°
2026-05-04 17:40 51.14724 -0.21407 205 ft 0 kts 181°
2026-05-04 17:43 51.14721 -0.21407 213 ft 2 kts 178°
2026-05-04 17:43 51.14692 -0.21399 205 ft 6 kts 168°
2026-05-04 17:43 51.14654 -0.21350 214 ft 7 kts 142°
2026-05-04 17:43 51.14615 -0.21331 205 ft 1 kts 166°
2026-05-04 17:44 51.14608 -0.21328 213 ft 0 kts 166°
2026-05-04 17:47 51.14589 -0.21321 214 ft 5 kts 166°
2026-05-04 17:47 51.14549 -0.21288 210 ft 9 kts 140°
2026-05-04 17:47 51.14519 -0.21189 206 ft 11 kts 87°
2026-05-04 17:48 51.14523 -0.21147 210 ft 0 kts 78°
2026-05-04 17:48 51.14524 -0.21146 206 ft 1 kts 78°
2026-05-04 17:48 51.14529 -0.21104 214 ft 16 kts 78°
2026-05-04 17:48 51.14623 -0.20425 210 ft 104 kts 77°
2026-05-04 17:49 51.14826 -0.18984 278 ft 158 kts 76°
2026-05-04 17:49 51.15057 -0.17254 1081 ft 159 kts 77°
2026-05-04 17:49 51.15281 -0.15488 1811 ft 171 kts 77°
2026-05-04 17:49 51.15534 -0.13496 2294 ft 196 kts 77°
2026-05-04 17:50 51.15818 -0.11261 2839 ft 221 kts 77°
2026-05-04 17:50 51.16118 -0.08802 2987 ft 227 kts 82°
2026-05-04 17:50 51.15902 -0.06329 3018 ft 230 kts 114°
2026-05-04 17:50 51.14862 -0.04414 3023 ft 233 kts 147°
2026-05-04 17:51 51.13323 -0.03668 3017 ft 234 kts 176°
2026-05-04 17:51 51.11688 -0.03634 3016 ft 235 kts 181°
2026-05-04 17:51 51.10053 -0.03698 3017 ft 236 kts 181°
2026-05-04 17:51 51.08410 -0.03775 3022 ft 236 kts 181°
2026-05-04 17:52 51.06783 -0.03856 3014 ft 235 kts 181°
2026-05-04 17:52 51.05143 -0.03937 3016 ft 236 kts 181°
2026-05-04 17:52 51.03504 -0.04015 3024 ft 236 kts 181°
2026-05-04 17:52 51.01882 -0.04339 3024 ft 236 kts 200°
2026-05-04 17:53 51.00566 -0.05850 3017 ft 235 kts 233°
2026-05-04 17:53 50.99970 -0.08214 3014 ft 232 kts 266°
2026-05-04 17:53 50.99988 -0.10782 3018 ft 232 kts 275°
2026-05-04 17:53 51.00110 -0.13344 3014 ft 233 kts 276°
2026-05-04 17:54 51.00241 -0.15871 3012 ft 232 kts 276°
2026-05-04 17:54 51.00373 -0.18424 3016 ft 232 kts 276°
2026-05-04 17:54 51.00508 -0.20979 3021 ft 232 kts 276°
2026-05-04 17:54 51.00660 -0.23535 3022 ft 232 kts 279°
2026-05-04 17:55 51.00910 -0.26076 3015 ft 232 kts 281°
2026-05-04 17:55 51.01178 -0.28595 3014 ft 231 kts 281°
2026-05-04 17:55 51.01449 -0.31113 3023 ft 232 kts 281°
2026-05-04 17:55 51.01722 -0.33647 3023 ft 232 kts 281°
2026-05-04 17:56 51.01990 -0.36140 3012 ft 231 kts 281°
2026-05-04 17:56 51.02311 -0.38640 3010 ft 231 kts 291°
2026-05-04 17:56 51.03218 -0.40681 3013 ft 227 kts 320°
2026-05-04 17:56 51.04468 -0.42213 3013 ft 227 kts 326°
2026-05-04 17:57 51.05759 -0.43670 3014 ft 227 kts 326°
2026-05-04 17:57 51.07057 -0.45124 3012 ft 227 kts 326°
2026-05-04 17:57 51.08339 -0.46557 3013 ft 227 kts 326°
2026-05-04 17:57 51.09634 -0.48006 3013 ft 227 kts 326°
2026-05-04 17:58 51.11000 -0.49232 3014 ft 225 kts 346°
2026-05-04 17:58 51.12527 -0.49112 3012 ft 222 kts 25°
2026-05-04 17:58 51.13552 -0.47476 3018 ft 205 kts 68°
2026-05-04 17:58 51.13650 -0.45297 3037 ft 194 kts 92°
2026-05-04 17:59 51.13852 -0.43277 3028 ft 186 kts 56°
2026-05-04 17:59 51.14887 -0.42183 3022 ft 183 kts
2026-05-04 17:59 51.16665 -0.44589 3035 ft 190 kts 278°
2026-05-04 18:00 51.16487 -0.46675 3061 ft 192 kts 255°
2026-05-04 18:00 51.16057 -0.48711 3041 ft 193 kts 251°
2026-05-04 18:00 51.15604 -0.50698 3040 ft 193 kts 251°
2026-05-04 18:00 51.15142 -0.52708 3040 ft 193 kts 251°
2026-05-04 18:01 51.14680 -0.54718 3030 ft 193 kts 251°
2026-05-04 18:01 51.14216 -0.56728 3027 ft 193 kts 251°
2026-05-04 18:01 51.13757 -0.58717 3032 ft 192 kts 251°
2026-05-04 18:02 51.12574 -0.62521 3037 ft 194 kts 219°
2026-05-04 18:02 51.11320 -0.63243 3035 ft 195 kts 179°
2026-05-04 18:02 51.10084 -0.62568 3038 ft 192 kts 139°
2026-05-04 18:02 51.09399 -0.60809 3034 ft 188 kts 101°
2026-05-04 18:03 51.09234 -0.58757 3030 ft 187 kts 92°
2026-05-04 18:03 51.09275 -0.56701 3032 ft 185 kts 75°
2026-05-04 18:03 51.09615 -0.54725 3040 ft 185 kts 73°
2026-05-04 18:03 51.09962 -0.52749 3035 ft 186 kts 73°
2026-05-04 18:04 51.10304 -0.50794 3024 ft 185 kts 73°
2026-05-04 18:04 51.10650 -0.48818 3016 ft 185 kts 73°
2026-05-04 18:04 51.11256 -0.44833 3015 ft 185 kts 76°
2026-05-04 18:05 51.11530 -0.42826 3015 ft 185 kts 76°
2026-05-04 18:05 51.11801 -0.40829 2771 ft 185 kts 76°
2026-05-04 18:05 51.12075 -0.38841 2505 ft 182 kts 76°
2026-05-04 18:05 51.12343 -0.36904 2256 ft 175 kts 76°
2026-05-04 18:06 51.12840 -0.33334 1817 ft 159 kts 76°
2026-05-04 18:06 51.13076 -0.31618 1607 ft 158 kts 76°
2026-05-04 18:06 51.13308 -0.29925 1406 ft 152 kts 76°
2026-05-04 18:07 51.13517 -0.28408 1231 ft 131 kts 76°
2026-05-04 18:07 51.13705 -0.27033 1035 ft 123 kts 76°
2026-05-04 18:07 51.13877 -0.25708 847 ft 121 kts 76°
2026-05-04 18:07 51.14061 -0.24408 728 ft 120 kts 76°
2026-05-04 18:08 51.14240 -0.23101 566 ft 120 kts 76°
2026-05-04 18:08 51.14430 -0.21804 375 ft 120 kts 76°
2026-05-04 18:08 51.14610 -0.20501 223 ft 120 kts 76°
2026-05-04 18:08 51.14775 -0.19330 209 ft 98 kts 77°
2026-05-04 18:09 51.15226 -0.16287 1256 ft 157 kts 75°
2026-05-04 18:09 51.15811 -0.12650 2684 ft 179 kts 74°
2026-05-04 18:10 51.16129 -0.10673 2969 ft 186 kts 74°
2026-05-04 18:10 51.16451 -0.08673 3014 ft 187 kts 74°
2026-05-04 18:10 51.16762 -0.06726 3011 ft 172 kts 74°
2026-05-04 18:10 51.17060 -0.04852 3020 ft 182 kts 74°
2026-05-04 18:11 51.17377 -0.02871 3017 ft 186 kts 74°
2026-05-04 18:11 51.17695 -0.00893 3022 ft 186 kts 74°
2026-05-04 18:11 51.18013 0.01107 3031 ft 185 kts 74°
2026-05-04 18:11 51.18319 0.03101 3041 ft 185 kts 74°
2026-05-04 18:12 51.18616 0.05077 3030 ft 184 kts 74°
2026-05-04 18:12 51.18915 0.07065 3029 ft 184 kts 74°
2026-05-04 18:12 51.18979 0.09100 3032 ft 188 kts 103°
2026-05-04 18:12 51.18227 0.10801 3038 ft 194 kts 143°
2026-05-04 18:13 51.16965 0.11599 3041 ft 194 kts 163°
2026-05-04 18:13 51.15694 0.12072 3037 ft 195 kts 166°
2026-05-04 18:13 51.12648 0.13130 3024 ft 236 kts 166°
2026-05-04 18:14 51.11037 0.13693 3027 ft 237 kts 166°
2026-05-04 18:14 51.09427 0.14253 3028 ft 237 kts 166°
2026-05-04 18:14 51.07813 0.14812 3026 ft 237 kts 166°
2026-05-04 18:15 51.04575 0.15855 3024 ft 238 kts 177°
2026-05-04 18:15 51.01818 0.13465 3023 ft 237 kts 243°
2026-05-04 18:15 51.01229 0.11028 3027 ft 236 kts 255°
2026-05-04 18:16 51.00776 0.08545 3014 ft 235 kts 256°
2026-05-04 18:16 51.00335 0.06039 3016 ft 235 kts 256°
2026-05-04 18:16 50.99897 0.03530 3025 ft 236 kts 256°
2026-05-04 18:17 50.99169 -0.00649 3014 ft 236 kts 256°
2026-05-04 18:17 50.98592 -0.03975 3023 ft 236 kts 256°
2026-05-04 18:17 50.97717 -0.09026 3028 ft 238 kts 256°
2026-05-04 18:18 50.97277 -0.11557 3016 ft 238 kts 256°
2026-05-04 18:18 50.96987 -0.13224 3016 ft 232 kts 256°
2026-05-04 18:18 50.96569 -0.15605 3020 ft 215 kts 256°
2026-05-04 18:18 50.96178 -0.17814 3035 ft 202 kts 256°
2026-05-04 18:19 50.95431 -0.22009 3014 ft 197 kts 256°
2026-05-04 18:19 50.95060 -0.24090 3016 ft 196 kts 256°
2026-05-04 18:19 50.94688 -0.26177 3016 ft 196 kts 256°
2026-05-04 18:20 50.94316 -0.28262 3011 ft 196 kts 256°
2026-05-04 18:20 50.94100 -0.30385 2999 ft 193 kts 279°
2026-05-04 18:20 50.94619 -0.32288 3020 ft 188 kts 307°
2026-05-04 18:20 50.95397 -0.33959 3018 ft 188 kts 311°
2026-05-04 18:21 50.96205 -0.35596 3015 ft 188 kts 311°
2026-05-04 18:21 50.97005 -0.37209 3014 ft 188 kts 311°
2026-05-04 18:21 50.97812 -0.38836 3018 ft 188 kts 311°
2026-05-04 18:21 50.98621 -0.40468 3023 ft 188 kts 311°
2026-05-04 18:22 50.99429 -0.42094 3015 ft 187 kts 311°
2026-05-04 18:22 51.00238 -0.43719 3018 ft 187 kts 311°
2026-05-04 18:22 51.01053 -0.45347 3028 ft 188 kts 311°
2026-05-04 18:22 51.01856 -0.46945 3034 ft 188 kts 311°
2026-05-04 18:23 51.02672 -0.48573 3026 ft 188 kts 311°
2026-05-04 18:23 51.03487 -0.50200 3022 ft 188 kts 311°
2026-05-04 18:23 51.04300 -0.51822 3018 ft 188 kts 311°
2026-05-04 18:23 51.05140 -0.53402 3011 ft 186 kts 320°
2026-05-04 18:24 51.06296 -0.54164 3014 ft 182 kts 359°
2026-05-04 18:24 51.07498 -0.53747 3016 ft 180 kts 30°
2026-05-04 18:24 51.08417 -0.52393 3035 ft 180 kts 48°
2026-05-04 18:24 51.09242 -0.50908 3031 ft 178 kts 48°
2026-05-04 18:25 51.10059 -0.49432 3025 ft 180 kts 48°
2026-05-04 18:25 51.10761 -0.47784 3021 ft 181 kts 65°
2026-05-04 18:25 51.11083 -0.45831 3017 ft 183 kts 76°
2026-05-04 18:25 51.11355 -0.43847 3017 ft 183 kts 76°
2026-05-04 18:26 51.11630 -0.41890 2925 ft 184 kts 76°
2026-05-04 18:26 51.11906 -0.39922 2645 ft 181 kts 76°
2026-05-04 18:26 51.12176 -0.37983 2393 ft 176 kts 76°
2026-05-04 18:26 51.12433 -0.36138 2171 ft 165 kts 76°
2026-05-04 18:27 51.12678 -0.34394 1949 ft 159 kts 76°
2026-05-04 18:27 51.12917 -0.32688 1736 ft 157 kts 76°
2026-05-04 18:27 51.13155 -0.30990 1541 ft 156 kts 77°
2026-05-04 18:27 51.13374 -0.29416 1346 ft 134 kts 77°
2026-05-04 18:28 51.13565 -0.28037 1115 ft 123 kts 77°
2026-05-04 18:28 51.13747 -0.26729 992 ft 120 kts 77°
2026-05-04 18:28 51.13925 -0.25440 830 ft 119 kts 77°
2026-05-04 18:28 51.14101 -0.24161 679 ft 118 kts 77°
2026-05-04 18:29 51.14273 -0.22878 520 ft 118 kts 78°
2026-05-04 18:29 51.14461 -0.21601 349 ft 119 kts 77°
2026-05-04 18:29 51.14638 -0.20317 217 ft 116 kts 78°
2026-05-04 18:29 51.14793 -0.19196 209 ft 95 kts 77°
2026-05-04 18:30 51.15220 -0.16111 1361 ft 155 kts 77°
2026-05-04 18:30 51.15457 -0.14394 2050 ft 166 kts 77°
2026-05-04 18:30 51.15708 -0.12532 2532 ft 177 kts 77°
2026-05-04 18:31 51.15955 -0.10573 2951 ft 183 kts 77°
2026-05-04 18:31 51.16196 -0.08581 3015 ft 183 kts 77°
2026-05-04 18:31 51.16433 -0.06584 3017 ft 183 kts 77°
2026-05-04 18:31 51.16527 -0.04578 3011 ft 184 kts 99°
2026-05-04 18:32 51.15863 -0.02858 3024 ft 191 kts 139°
2026-05-04 18:32 51.14612 -0.02173 3017 ft 195 kts 180°
2026-05-04 18:32 51.13287 -0.02664 3032 ft 197 kts 199°
2026-05-04 18:32 51.12006 -0.03434 3030 ft 197 kts 201°
2026-05-04 18:33 51.10729 -0.04237 3019 ft 197 kts 201°
2026-05-04 18:33 51.09456 -0.05041 3018 ft 196 kts 201°
2026-05-04 18:33 51.08176 -0.05851 3022 ft 207 kts 201°
2026-05-04 18:33 51.06720 -0.06770 3026 ft 234 kts 201°
2026-05-04 18:34 51.05198 -0.07730 3017 ft 238 kts 201°
2026-05-04 18:34 51.03648 -0.08709 3017 ft 239 kts 201°
2026-05-04 18:34 51.02126 -0.09772 3012 ft 239 kts 213°
2026-05-04 18:34 51.01027 -0.11693 3015 ft 237 kts 246°
2026-05-04 18:35 51.00626 -0.14216 3020 ft 236 kts 264°
2026-05-04 18:35 51.00440 -0.16777 3014 ft 235 kts 266°
2026-05-04 18:35 51.00275 -0.19370 3014 ft 235 kts 266°
2026-05-04 18:35 51.00113 -0.21962 3014 ft 235 kts 266°
2026-05-04 18:36 50.99955 -0.24529 3018 ft 236 kts 266°
2026-05-04 18:36 50.99795 -0.27119 3015 ft 235 kts 266°
2026-05-04 18:36 50.99634 -0.29708 3024 ft 234 kts 266°
2026-05-04 18:36 50.99477 -0.32201 3015 ft 217 kts 266°
2026-05-04 18:37 50.99328 -0.34501 3017 ft 202 kts 266°
2026-05-04 18:37 50.99183 -0.36689 3032 ft 197 kts 266°
2026-05-04 18:37 50.99040 -0.38842 3028 ft 196 kts 266°
2026-05-04 18:37 50.99043 -0.40974 3019 ft 192 kts 288°
2026-05-04 18:38 50.99553 -0.42892 3029 ft 190 kts 300°
2026-05-04 18:38 51.00170 -0.44751 3016 ft 189 kts 301°
2026-05-04 18:38 51.00789 -0.46575 3013 ft 189 kts 301°
2026-05-04 18:38 51.01418 -0.48418 3015 ft 189 kts 301°
2026-05-04 18:39 51.02045 -0.50261 3017 ft 189 kts 301°
2026-05-04 18:39 51.02664 -0.52080 3016 ft 189 kts 301°
2026-05-04 18:39 51.03499 -0.53644 3014 ft 184 kts 332°
2026-05-04 18:39 51.04680 -0.54403 3032 ft 183 kts 344°
2026-05-04 18:40 51.05900 -0.54981 3024 ft 183 kts 346°
2026-05-04 18:40 51.07136 -0.55396 3010 ft 181 kts
2026-05-04 18:40 51.08276 -0.54665 3034 ft 180 kts 38°
2026-05-04 18:40 51.09161 -0.53248 3039 ft 181 kts 54°
2026-05-04 18:41 51.09745 -0.51472 3043 ft 181 kts 63°
2026-05-04 18:41 51.10296 -0.49669 3031 ft 181 kts 63°
2026-05-04 18:41 51.10796 -0.47857 3018 ft 182 kts 72°
2026-05-04 18:41 51.11072 -0.45886 3020 ft 182 kts 76°
2026-05-04 18:42 51.11346 -0.43912 3015 ft 183 kts 75°
2026-05-04 18:42 51.11625 -0.41937 2932 ft 184 kts 76°
2026-05-04 18:42 51.11905 -0.39961 2658 ft 181 kts 76°
2026-05-04 18:42 51.12179 -0.38020 2399 ft 175 kts 76°
2026-05-04 18:43 51.12440 -0.36168 2168 ft 166 kts 76°
2026-05-04 18:43 51.12683 -0.34411 1953 ft 161 kts 76°
2026-05-04 18:43 51.12924 -0.32666 1730 ft 159 kts 76°
2026-05-04 18:43 51.13159 -0.30966 1524 ft 158 kts 77°
2026-05-04 18:44 51.13380 -0.29361 1336 ft 136 kts 77°
2026-05-04 18:44 51.13508 -0.28419 1213 ft 128 kts 77°
2026-05-04 18:44 51.13754 -0.26622 985 ft 121 kts 76°
2026-05-04 18:44 51.13932 -0.25319 813 ft 120 kts 76°
2026-05-04 18:45 51.14108 -0.24021 670 ft 120 kts 76°
2026-05-04 18:45 51.14293 -0.22728 534 ft 120 kts 75°
2026-05-04 18:45 51.14484 -0.21434 344 ft 120 kts 77°
2026-05-04 18:45 51.14661 -0.20147 215 ft 113 kts 77°
2026-05-04 18:46 51.14816 -0.19027 209 ft 109 kts 77°
2026-05-04 18:46 51.15037 -0.17446 515 ft 163 kts 77°
2026-05-04 18:46 51.15259 -0.15693 1648 ft 162 kts 77°
2026-05-04 18:46 51.15492 -0.13881 2206 ft 171 kts 77°
2026-05-04 18:47 51.15734 -0.11958 2806 ft 181 kts 77°
2026-05-04 18:47 51.15975 -0.09977 2982 ft 182 kts 77°
2026-05-04 18:47 51.16210 -0.07997 3017 ft 181 kts 77°
2026-05-04 18:47 51.16178 -0.06006 3022 ft 185 kts 108°
2026-05-04 18:48 51.15348 -0.04446 3012 ft 191 kts 148°
2026-05-04 18:48 51.14065 -0.04070 3011 ft 195 kts 188°
2026-05-04 18:48 51.12889 -0.05076 3022 ft 196 kts 228°
2026-05-04 18:48 51.12105 -0.06834 3019 ft 185 kts 240°
2026-05-04 18:49 51.11469 -0.08528 3014 ft 184 kts 241°
2026-05-04 18:49 51.10800 -0.10356 3012 ft 195 kts 241°
2026-05-04 18:49 51.10122 -0.12217 2999 ft 196 kts 241°
2026-05-04 18:49 51.09434 -0.14105 3015 ft 197 kts 241°
2026-05-04 18:50 51.08746 -0.15990 3027 ft 197 kts 241°
2026-05-04 18:50 51.08057 -0.17876 3015 ft 197 kts 241°
2026-05-04 18:50 51.07366 -0.19769 3024 ft 197 kts 241°
2026-05-04 18:50 51.06687 -0.21629 3025 ft 196 kts 241°
2026-05-04 18:51 51.06000 -0.23510 3013 ft 196 kts 241°
2026-05-04 18:51 51.05313 -0.25389 3010 ft 196 kts 241°
2026-05-04 18:51 51.04623 -0.27273 3020 ft 197 kts 241°
2026-05-04 18:51 51.03934 -0.29158 3022 ft 197 kts 241°
2026-05-04 18:52 51.03245 -0.31045 3016 ft 197 kts 241°
2026-05-04 18:52 51.02558 -0.32922 3021 ft 196 kts 241°
2026-05-04 18:52 51.02037 -0.34876 3027 ft 194 kts 263°
2026-05-04 18:52 51.01930 -0.37011 3038 ft 194 kts 270°
2026-05-04 18:53 51.01894 -0.39158 3027 ft 194 kts 271°
2026-05-04 18:53 51.01866 -0.41301 3027 ft 193 kts 271°
2026-05-04 18:53 51.01840 -0.43418 3029 ft 193 kts 272°
2026-05-04 18:53 51.02156 -0.45433 3024 ft 188 kts 306°
2026-05-04 18:54 51.03151 -0.46699 3032 ft 184 kts 336°
2026-05-04 18:54 51.04328 -0.47500 3022 ft 183 kts 342°
2026-05-04 18:54 51.05563 -0.47633 3015 ft 180 kts 18°
2026-05-04 18:54 51.06604 -0.46539 3025 ft 180 kts 43°
2026-05-04 18:55 51.07488 -0.45123 3025 ft 180 kts 46°
2026-05-04 18:55 51.09146 -0.42324 2758 ft 161 kts 46°
2026-05-04 18:55 51.09896 -0.41056 2399 ft 156 kts 46°
2026-05-04 18:56 51.10645 -0.39802 2048 ft 155 kts 46°
2026-05-04 18:56 51.11395 -0.38555 2019 ft 156 kts 47°
2026-05-04 18:56 51.12017 -0.37117 2034 ft 159 kts 60°
2026-05-04 18:56 51.12480 -0.35525 2024 ft 158 kts 70°
2026-05-04 18:57 51.12739 -0.33835 2033 ft 160 kts 76°
2026-05-04 18:57 51.12969 -0.32081 1992 ft 160 kts 77°
2026-05-04 18:57 51.13169 -0.30387 1869 ft 150 kts 79°
2026-05-04 18:57 51.13277 -0.29320 1723 ft 138 kts 78°
2026-05-04 18:58 51.13574 -0.27489 1441 ft 123 kts 72°
2026-05-04 18:58 51.13794 -0.26190 1177 ft 120 kts 76°
2026-05-04 18:58 51.13979 -0.24898 943 ft 119 kts 75°
2026-05-04 18:58 51.14106 -0.24030 764 ft 119 kts 77°
2026-05-04 18:59 51.14345 -0.22319 470 ft 119 kts 76°
2026-05-04 18:59 51.14478 -0.21451 336 ft 120 kts 76°
2026-05-04 18:59 51.14659 -0.20162 223 ft 118 kts 78°
2026-05-04 18:59 51.14808 -0.19083 209 ft 77 kts 77°
2026-05-04 19:00 51.14916 -0.18555 210 ft 31 kts 34°
2026-05-04 19:00 51.14996 -0.18406 210 ft 19 kts 52°
2026-05-04 19:00 51.15078 -0.18244 204 ft 9 kts 49°
2026-05-04 19:00 51.15096 -0.18212 205 ft 0 kts 44°
2026-05-04 19:01 51.15101 -0.18206 205 ft 3 kts 40°
2026-05-04 19:01 51.15130 -0.18194 214 ft 7 kts 356°
2026-05-04 19:02 51.15191 -0.18192 213 ft 11 kts 33°
2026-05-04 19:02 51.15217 -0.18056 211 ft 16 kts 78°
2026-05-04 19:02 51.15245 -0.17856 216 ft 21 kts 78°
2026-05-04 19:02 51.15279 -0.17612 210 ft 21 kts 77°
2026-05-04 19:03 51.15300 -0.17429 205 ft 10 kts 81°
2026-05-04 19:03 51.15356 -0.17347 205 ft 13 kts 57°
2026-05-04 19:03 51.15388 -0.17191 205 ft 11 kts 74°
2026-05-04 19:03 51.15415 -0.17076 205 ft 6 kts 78°
2026-05-04 19:04 51.15426 -0.16993 205 ft 6 kts 77°
2026-05-04 19:04 51.15431 -0.16957 205 ft 5 kts 78°
2026-05-04 19:04 51.15441 -0.16896 213 ft 5 kts 61°
2026-05-04 19:04 51.15479 -0.16900 205 ft 4 kts 347°
2026-05-04 19:05 51.15491 -0.16904 205 ft 1 kts 346°
2026-05-04 19:05 51.15492 -0.16904 205 ft 0 kts 345°
2026-05-04 19:09 51.15492 -0.16905 211 ft 0 kts 345°